| time (UTC) | temp F | wind direction | speed knots | gust knots | rain 1hr in | rain 24hr in | rain mn in | humidity % | barometer mb |
| 20260504214555 | 71 | 223 | 0.9 | 7.0 | 0.00 | 0.00 | 0.00 | 50 | 1010.0 |
| 20260504213102 | 71 | 294 | 0.9 | 8.7 | 0.00 | 0.00 | 0.00 | 50 | 1010.0 |
| 20260504211554 | 70 | 11 | 1.7 | 5.2 | 0.00 | 0.00 | 0.00 | 52 | 1009.9 |
| 20260504210104 | 69 | 360 | 0.9 | 4.3 | 0.00 | 0.00 | 0.00 | 53 | 1009.9 |
| 20260504204635 | 70 | 360 | 0.9 | 3.5 | 0.00 | 0.00 | 0.00 | 52 | 1009.6 |
| 20260504203057 | 71 | 51 | 0.9 | 6.1 | 0.00 | 0.00 | 0.00 | 48 | 1009.6 |
| 20260504201556 | 72 | 0 | 1.7 | 7.0 | 0.00 | 0.00 | 0.00 | 47 | 1009.6 |
| 20260504200056 | 71 | 0 | 0.9 | 4.3 | 0.00 | 0.00 | 0.00 | 48 | 1009.8 |
| 20260504194557 | 72 | 192 | 0.9 | 4.3 | 0.00 | 0.00 | 0.00 | 50 | 1009.8 |
| 20260504193052 | 71 | 262 | 0.9 | 3.5 | 0.00 | 0.00 | 0.00 | 50 | 1010.1 |
| 20260504191557 | 71 | 175 | 1.7 | 5.2 | 0.00 | 0.00 | 0.00 | 48 | 1010.3 |
| 20260504190059 | 72 | 165 | 1.7 | 6.1 | 0.00 | 0.00 | 0.00 | 50 | 1010.4 |
| 20260504184604 | 71 | 177 | 2.6 | 7.8 | 0.00 | 0.00 | 0.00 | 50 | 1010.7 |
| 20260504183108 | 71 | 179 | 1.7 | 5.2 | 0.00 | 0.00 | 0.00 | 48 | 1010.9 |
| 20260504181555 | 70 | 229 | 1.7 | 5.2 | 0.00 | 0.00 | 0.00 | 50 | 1010.8 |
| 20260504180052 | 71 | 228 | 0.9 | 7.0 | 0.00 | 0.00 | 0.00 | 52 | 1010.7 |
| 20260504174556 | 70 | 188 | 1.7 | 7.0 | 0.00 | 0.00 | 0.00 | 52 | 1011.1 |
| 20260504173056 | 69 | 116 | 2.6 | 7.0 | 0.00 | 0.00 | 0.00 | 52 | 1011.3 |
| 20260504171554 | 68 | 63 | 0.9 | 6.1 | 0.00 | 0.00 | 0.00 | 54 | 1011.5 |
| 20260504081558 | 47 | 0 | 0.0 | 0.9 | 0.00 | 0.00 | 0.00 | 81 | 1014.2 |
| 20260504070106 | 49 | 0 | 0.0 | 0.0 | 0.00 | 0.00 | 0.00 | 75 | 1014.6 |
| 20260504044554 | 47 | 360 | 0.0 | 2.6 | 0.00 | 0.00 | 0.00 | 72 | 1015.3 |
| 20260504043054 | 47 | 0 | 0.0 | 0.9 | 0.00 | 0.00 | 0.00 | 69 | 1015.3 |
| 20260504041553 | 47 | 0 | 0.0 | 0.0 | 0.00 | 0.00 | 0.00 | 69 | 1015.2 |
| 20260504040052 | 47 | 0 | 0.0 | 0.0 | 0.00 | 0.00 | 0.00 | 68 | 1015.2 |
| 20260504034607 | 48 | 0 | 0.0 | 0.9 | 0.00 | 0.00 | 0.00 | 67 | 1015.3 |
| 20260504033052 | 48 | 0 | 0.0 | 1.7 | 0.00 | 0.00 | 0.00 | 63 | 1015.4 |
| 20260504031552 | 49 | 0 | 0.0 | 0.0 | 0.00 | 0.00 | 0.00 | 61 | 1015.4 |
| 20260504030053 | 50 | 0 | 0.0 | 0.0 | 0.00 | 0.00 | 0.00 | 59 | 1015.3 |
| 20260504024553 | 50 | 0 | 0.0 | 0.0 | 0.00 | 0.00 | 0.00 | 56 | 1015.3 |
| 20260504023052 | 50 | 360 | 0.0 | 1.7 | 0.00 | 0.00 | 0.00 | 59 | 1015.2 |
| 20260504021554 | 52 | 0 | 0.0 | 1.7 | 0.00 | 0.00 | 0.00 | 54 | 1015.1 |
| 20260504020053 | 52 | 360 | 0.0 | 1.7 | 0.00 | 0.00 | 0.00 | 53 | 1015.0 |
| 20260504014603 | 52 | 0 | 0.0 | 2.6 | 0.00 | 0.00 | 0.00 | 48 | 1015.0 |
| 20260504013055 | 52 | 360 | 0.9 | 4.3 | 0.00 | 0.00 | 0.00 | 49 | 1015.0 |
| 20260504011558 | 52 | 360 | 0.0 | 1.7 | 0.00 | 0.00 | 0.00 | 55 | 1015.3 |
| 20260504010058 | 53 | 0 | 0.0 | 0.9 | 0.00 | 0.00 | 0.00 | 56 | 1015.2 |
| 20260504004553 | 53 | 0 | 0.0 | 0.9 | 0.00 | 0.00 | 0.00 | 50 | 1015.1 |
| 20260504003059 | 54 | 0 | 0.0 | 0.9 | 0.00 | 0.00 | 0.00 | 47 | 1015.1 |
| 20260504001558 | 56 | 0 | 0.0 | 0.9 | 0.00 | 0.00 | 0.00 | 45 | 1015.2 |
| 20260503234554 | 58 | 0 | 0.0 | 0.9 | 0.00 | 0.00 | 0.00 | 40 | 1015.0 |
| 20260503233054 | 58 | 0 | 0.0 | 1.7 | 0.00 | 0.00 | 0.00 | 42 | 1015.3 |
| 20260503231555 | 59 | 360 | 0.0 | 4.3 | 0.00 | 0.00 | 0.00 | 36 | 1015.5 |
| 20260503230100 | 59 | 360 | 0.0 | 7.0 | 0.00 | 0.00 | 0.00 | 35 | 1015.7 |
| 20260503224554 | 59 | 0 | 0.9 | 4.3 | 0.00 | 0.00 | 0.00 | 35 | 1015.8 |
| 20260503223053 | 60 | 0 | 0.0 | 8.7 | 0.00 | 0.00 | 0.00 | 36 | 1015.9 |
| 20260503221554 | 60 | 360 | 0.9 | 7.0 | 0.00 | 0.00 | 0.00 | 37 | 1015.8 |
| 20260503220057 | 59 | 360 | 2.6 | 7.0 | 0.00 | 0.00 | 0.00 | 34 | 1015.9 |